User: anonymous
Location: Huntington Beach
(33.6600°N, 117.9980°W)
Time: 14:35:25
(UTC-07:00)
Language:

HST - Orbit

View from above orbital plane
View from above orbital plane
View from above satellite
View from above satellite

Ground track
Ground track

The orbit data is extracted from the following two-line orbital elements,

1 20580U 90037B   14293.64542824  .00004604  00000-0  29676-3 0  1391
2 20580 028.4707 292.1387 0003072 184.1398 123.3236 15.05959028143645
Epoch (UTC): 20 October 2014 15:29:25
Eccentricity: 0.0003072
inclination: 28.4707°
perigee height: 546 km
apogee height: 550 km
right ascension of ascending node: 292.1387°
argument of perigee: 184.1398°
revolutions per day: 15.05959028
mean anomaly at epoch: 123.3236°
orbit number at epoch: 14364

The dashed part of the orbit path shows where the satellite is in the earth's shadow,  

DLR